Weather History for Owensboro, KY

Change the Weather History Date:

Friday, April 26, 2013

  Actual Average Record
Temperature  
Mean Temperature 54 °F -  
Max Temperature 63 °F 73 °F 90 °F (1989)
Min Temperature 45 °F 47 °F 34 °F (1947)
Degree Days  
Heating Degree Days 11    
Growing Degree Days 4 (Base 50)    
Moisture  
Dew Point 41 °F    
Average Humidity 62    
Maximum Humidity 80    
Minimum Humidity 44    
Precipitation  
Precipitation 0.00 in - - ()
Sea Level Pressure  
Sea Level Pressure 30.38 in    
Wind  
Wind Speed 5 mph (SE)    
Max Wind Speed 13 mph    
Max Gust Speed -    
Visibility 10 miles    
Events      
Averages and records for this station are not official NWS values.
T = Trace of Precipitation, MM = Missing Value Source: NWS Daily Summary

Daily Weather History Graph

Daily Weather History Graph

Search for Another Location

Airport:

Trip Planner

Search our weather history database for the weather conditions in past years. The results will help you decide how hot, cold, wet, or windy it might be!

Date:

Astronomy

Apr. 26, 2013 Rise Set
Actual Time 5:58 AM CDT 7:34 PM CDT
Civil Twilight 5:30 AM CDT 8:02 PM CDT
Nautical Twilight 4:57 AM CDT 8:36 PM CDT
Astronomical Twilight 4:21 AM CDT 9:11 PM CDT
Moon 8:55 PM CDT (4/26) 6:26 AM CDT (4/26)
Length of Visible Light 14h 31m
Length of Day
13h 36m
Full, 99% of the Moon is Illuminated
Apr 26
Full
May 2
Last Quarter
May 9
New
May 17
First Quarter
May 24
Full

Hourly Weather History & Observations

Time (CDT) Temp. Windchill Dew Point Humidity Pressure Visibility Wind Dir Wind Speed Gust Speed Precip Events Conditions
12:56 AM 47.8 °F - 38.8 °F 71% 30.37 in 10.0 mi East 3.5 mph - N/A   Clear
1:56 AM 45.9 °F 44.6 °F 37.9 °F 74% 30.38 in 10.0 mi SE 3.5 mph - N/A   Clear
2:56 AM 45.9 °F - 37.9 °F 74% 30.38 in 10.0 mi Calm Calm - N/A   Clear
3:56 AM 46.9 °F - 37.9 °F 71% 30.39 in 10.0 mi SE 4.6 mph - N/A   Clear
4:56 AM 46.9 °F - 36.9 °F 68% 30.39 in 10.0 mi ESE 4.6 mph - N/A   Clear
5:56 AM 45.9 °F 42.3 °F 36.9 °F 71% 30.39 in 10.0 mi ESE 6.9 mph - N/A   Clear
6:56 AM 48.9 °F - 36.0 °F 61% 30.38 in 10.0 mi SE 9.2 mph - N/A   Clear
7:56 AM 52.9 °F - 36.9 °F 55% 30.40 in 10.0 mi ESE 10.4 mph - N/A   Clear
8:56 AM 56.8 °F - 36.9 °F 47% 30.41 in 10.0 mi ESE 12.7 mph - N/A   Clear
9:56 AM 59.9 °F - 38.8 °F 46% 30.44 in 10.0 mi SE 6.9 mph - N/A   Clear
10:56 AM 59.9 °F - 37.9 °F 44% 30.46 in 10.0 mi SSE 5.8 mph - N/A   Clear
11:56 AM 59.9 °F - 37.9 °F 44% 30.44 in 10.0 mi SSE 5.8 mph - N/A   Partly Cloudy
12:56 PM 61.9 °F - 39.9 °F 44% 30.40 in 10.0 mi SE 6.9 mph - N/A   Partly Cloudy
1:56 PM 63.0 °F - 41.0 °F 45% 30.38 in 10.0 mi SSE 9.2 mph - N/A   Scattered Clouds
2:56 PM 61.0 °F - 43.0 °F 52% 30.40 in 10.0 mi SSW 6.9 mph - N/A   Mostly Cloudy
3:56 PM 59.9 °F - 43.9 °F 55% 30.40 in 10.0 mi SW 10.4 mph - N/A   Clear
4:56 PM 57.9 °F - 43.9 °F 60% 30.35 in 10.0 mi South 6.9 mph - N/A   Overcast
5:56 PM 56.8 °F - 45.0 °F 64% 30.36 in 10.0 mi SSW 12.7 mph - N/A   Overcast
6:56 PM 54.9 °F - 45.9 °F 72% 30.34 in 10.0 mi SE 4.6 mph - N/A   Overcast
7:56 PM 55.9 °F - 45.0 °F 67% 30.33 in 10.0 mi Calm Calm - N/A   Overcast
8:56 PM 54.9 °F - 46.9 °F 75% 30.31 in 10.0 mi ESE 3.5 mph - N/A   Overcast
9:56 PM 54.0 °F - 46.9 °F 77% 30.33 in 10.0 mi South 3.5 mph - N/A   Overcast
10:56 PM 52.9 °F - 46.9 °F 80% 30.36 in 10.0 mi Calm Calm - N/A   Overcast
11:56 PM 52.9 °F - 46.9 °F 80% 30.32 in 10.0 mi SSE 4.6 mph - N/A   Overcast